| time (UTC) | temp F | wind direction | speed knots | gust knots | rain 1hr in | rain 24hr in | rain mn in | humidity % | barometer mb |
| 20260506093034 | 43 | 254 | 1.7 | 0.0 | 0.00 | 0.00 | 0.00 | 67 | 1005.7 |
| 20260506091533 | 43 | 262 | 1.7 | 0.0 | 0.00 | 0.00 | 0.00 | 69 | 1005.5 |
| 20260506090031 | 41 | 285 | 0.0 | 0.0 | 0.00 | 0.00 | 0.00 | 71 | 1005.5 |
| 20260506084530 | 41 | 285 | 0.9 | 0.0 | 0.00 | 0.00 | 0.00 | 69 | 1005.2 |
| 20260506083027 | 43 | 264 | 0.0 | 0.0 | 0.00 | 0.00 | 0.00 | 64 | 1005.4 |
| 20260506081531 | 45 | 202 | 0.0 | 0.0 | 0.00 | 0.00 | 0.00 | 63 | 1005.3 |
| 20260506073019 | 44 | 185 | 0.0 | 0.0 | 0.00 | 0.00 | 0.00 | 67 | 1005.0 |
| 20260506071515 | 42 | 159 | 0.0 | 0.0 | 0.00 | 0.00 | 0.00 | 70 | 1004.7 |
| 20260506061510 | 41 | 131 | 1.7 | 0.0 | 0.00 | 0.00 | 0.00 | 73 | 1004.4 |
| 20260506050108 | 39 | 105 | 3.5 | 0.0 | 0.00 | 0.00 | 0.00 | 75 | 1003.8 |
| 20260506044558 | 39 | 131 | 0.0 | 0.0 | 0.00 | 0.00 | 0.00 | 76 | 1003.6 |
| 20260506043057 | 39 | 135 | 0.0 | 0.0 | 0.00 | 0.00 | 0.00 | 78 | 1003.6 |
| 20260506041602 | 38 | 134 | 0.9 | 0.0 | 0.00 | 0.00 | 0.00 | 78 | 1003.6 |
| 20260506040052 | 38 | 68 | 1.7 | 0.0 | 0.00 | 0.00 | 0.00 | 78 | 1003.4 |
| 20260506034558 | 38 | 72 | 0.9 | 0.0 | 0.00 | 0.00 | 0.00 | 78 | 1003.2 |
| 20260506033051 | 38 | 51 | 0.0 | 0.0 | 0.00 | 0.00 | 0.00 | 79 | 1003.2 |
| 20260506031549 | 37 | 50 | 0.0 | 0.0 | 0.00 | 0.00 | 0.00 | 80 | 1003.2 |
| 20260506030048 | 37 | 46 | 0.0 | 0.0 | 0.00 | 0.00 | 0.00 | 80 | 1002.9 |
| 20260506024557 | 37 | 46 | 0.0 | 0.0 | 0.00 | 0.00 | 0.00 | 80 | 1002.8 |
| 20260506023045 | 37 | 46 | 0.0 | 0.0 | 0.00 | 0.00 | 0.00 | 80 | 1002.6 |
| 20260506021544 | 37 | 46 | 0.0 | 0.0 | 0.00 | 0.00 | 0.00 | 81 | 1002.6 |
| 20260506020048 | 37 | 44 | 0.0 | 0.0 | 0.00 | 0.00 | 0.00 | 81 | 1002.5 |
| 20260506014541 | 37 | 44 | 0.0 | 0.0 | 0.00 | 0.00 | 0.00 | 81 | 1002.5 |
| 20260506013039 | 37 | 44 | 0.0 | 0.0 | 0.00 | 0.00 | 0.00 | 80 | 1002.2 |
| 20260506011600 | 37 | 44 | 0.0 | 0.0 | 0.00 | 0.00 | 0.00 | 79 | 1002.3 |
| 20260506010035 | 38 | 44 | 0.0 | 0.0 | 0.00 | 0.00 | 0.00 | 79 | 1002.1 |
| 20260506004542 | 38 | 44 | 0.9 | 0.0 | 0.00 | 0.00 | 0.00 | 79 | 1001.9 |
| 20260506003031 | 38 | 41 | 0.9 | 0.0 | 0.00 | 0.00 | 0.00 | 81 | 1001.7 |
| 20260506001529 | 38 | 42 | 1.7 | 0.0 | 0.00 | 0.00 | 0.00 | 81 | 1001.8 |
| 20260506000045 | 38 | 44 | 1.7 | 0.0 | 0.00 | 0.00 | 0.00 | 81 | 1001.7 |
| 20260505234539 | 38 | 53 | 1.7 | 0.0 | 0.00 | 0.00 | 0.00 | 81 | 1001.6 |
| 20260505233027 | 38 | 61 | 2.6 | 0.0 | 0.00 | 0.00 | 0.00 | 81 | 1001.6 |
| 20260505231522 | 38 | 61 | 1.7 | 0.0 | 0.00 | 0.00 | 0.00 | 80 | 1001.4 |
| 20260505230044 | 39 | 48 | 1.7 | 0.0 | 0.00 | 0.00 | 0.00 | 80 | 1001.4 |
| 20260505224533 | 39 | 63 | 1.7 | 0.0 | 0.00 | 0.00 | 0.00 | 79 | 1001.3 |
| 20260505223022 | 39 | 67 | 1.7 | 0.0 | 0.00 | 0.00 | 0.00 | 79 | 1001.3 |
| 20260505221514 | 39 | 53 | 1.7 | 0.0 | 0.00 | 0.00 | 0.00 | 78 | 1001.2 |
| 20260505220011 | 39 | 53 | 0.9 | 0.0 | 0.00 | 0.00 | 0.38 | 78 | 1001.2 |
| 20260505214514 | 39 | 53 | 0.9 | 0.0 | 0.00 | 0.00 | 0.38 | 77 | 1001.2 |
| 20260505213009 | 40 | 53 | 1.7 | 0.0 | 0.00 | 0.00 | 0.38 | 76 | 1001.0 |
| 20260505211516 | 40 | 49 | 1.7 | 0.0 | 0.00 | 0.00 | 0.38 | 76 | 1001.1 |
| 20260505210007 | 40 | 38 | 0.9 | 0.0 | 0.00 | 0.00 | 0.38 | 76 | 1000.9 |
| 20260505204506 | 40 | 37 | 0.9 | 0.0 | 0.00 | 0.00 | 0.38 | 76 | 1000.8 |
| 20260505203009 | 40 | 37 | 0.0 | 0.0 | 0.00 | 0.00 | 0.38 | 75 | 1000.6 |
| 20260505201505 | 41 | 36 | 0.9 | 0.0 | 0.00 | 0.00 | 0.38 | 75 | 1000.7 |
| 20260505200004 | 41 | 36 | 1.7 | 0.0 | 0.00 | 0.00 | 0.38 | 74 | 1000.6 |
| 20260505194504 | 41 | 30 | 0.9 | 0.0 | 0.00 | 0.00 | 0.38 | 72 | 1000.5 |
| 20260505193003 | 42 | 31 | 1.7 | 0.0 | 0.00 | 0.00 | 0.38 | 69 | 1000.4 |
| 20260505191503 | 42 | 227 | 0.0 | 0.0 | 0.00 | 0.00 | 0.38 | 67 | 1000.5 |
| 20260505190001 | 42 | 227 | 0.0 | 0.0 | 0.00 | 0.00 | 0.38 | 65 | 1000.5 |
| 20260505184505 | 42 | 227 | 0.0 | 0.0 | 0.00 | 0.00 | 0.38 | 64 | 1000.3 |
| 20260505183100 | 43 | 227 | 0.0 | 0.0 | 0.00 | 0.00 | 0.38 | 64 | 1000.3 |
| 20260505181558 | 43 | 227 | 0.0 | 0.0 | 0.00 | 0.00 | 0.38 | 63 | 1000.1 |
| 20260505174558 | 44 | 227 | 0.9 | 0.0 | 0.00 | 0.00 | 0.38 | 61 | 1000.0 |
| 20260505173113 | 45 | 228 | 1.7 | 0.0 | 0.00 | 0.00 | 0.38 | 57 | 1000.0 |
| 20260505171623 | 44 | 223 | 0.9 | 0.0 | 0.00 | 0.00 | 0.38 | 59 | 1000.0 |
| 20260505170055 | 44 | 228 | 0.9 | 0.0 | 0.00 | 0.00 | 0.38 | 61 | 999.9 |
| 20260505164601 | 44 | 236 | 1.7 | 0.0 | 0.00 | 0.00 | 0.38 | 59 | 999.8 |
| 20260505163054 | 45 | 252 | 2.6 | 0.0 | 0.00 | 0.00 | 0.38 | 59 | 999.8 |
| 20260505161555 | 46 | 236 | 1.7 | 0.0 | 0.00 | 0.00 | 0.38 | 55 | 999.6 |
| 20260505153047 | 46 | 283 | 0.9 | 0.0 | 0.00 | 0.00 | 0.38 | 57 | 999.6 |
| 20260505151545 | 45 | 248 | 1.7 | 0.0 | 0.00 | 0.00 | 0.37 | 56 | 999.6 |
| 20260505150105 | 46 | 242 | 0.9 | 0.0 | 0.00 | 0.00 | 0.37 | 56 | 999.6 |
| 20260505124525 | 43 | 242 | 3.5 | 0.0 | 0.00 | 0.00 | 0.33 | 78 | 999.4 |
| 20260505123014 | 42 | 296 | 2.6 | 0.0 | 0.00 | 0.00 | 0.31 | 84 | 999.2 |
| 20260505121523 | 39 | 294 | 1.7 | 0.0 | 0.00 | 0.00 | 0.30 | 87 | 999.3 |
| 20260505120009 | 39 | 290 | 2.6 | 0.0 | 0.00 | 0.00 | 0.28 | 89 | 999.3 |
| 20260505114508 | 38 | 288 | 3.5 | 0.0 | 0.00 | 0.00 | 0.28 | 87 | 999.2 |
| 20260505113008 | 38 | 236 | 4.3 | 0.0 | 0.00 | 0.00 | 0.28 | 86 | 999.0 |
| 20260505111504 | 40 | 241 | 2.6 | 0.0 | 0.00 | 0.00 | 0.26 | 87 | 998.7 |
| 20260505101600 | 39 | 271 | 0.0 | 0.0 | 0.00 | 0.00 | 0.19 | 92 | 998.3 |
| 20260505100137 | 37 | 290 | 0.0 | 0.0 | 0.00 | 0.00 | 0.18 | 91 | 998.3 |
| 20260505094558 | 36 | 296 | 0.9 | 0.0 | 0.00 | 0.00 | 0.16 | 92 | 998.3 |